When you browse on this site, cookies collect data to enhance your experience and personalize the content and advertising you see.
Visit our Privacy Policy to learn more. By continuing to use the site, you agree to this use of cookies and data.
  • En España
  • Lista de países
  • Para 7 días
  • Temperatura del agua
  • Mapa Satelital
  • El tiempo en el mapa
  • Informadores
  • user-avatar
    Iniciar sesión

    Tiempo cada hora Bihać

    Hoy, 20 Enero, Domingo

    Tiempo Temperatura Precipitaciones Viento Presión Humedad
    00:00 -2°C° 0 mm 2 mps 707 mmHg 88%
    01:00 -1°C° 0 mm 1 mps 707 mmHg 90%
    02:00 -1°C° 0 mm 1 mps 707 mmHg 90%
    03:00 -1°C° 0 mm 1 mps 706 mmHg 90%
    04:00 -3°C° 0 mm 2 mps 706 mmHg 89%
    05:00 -1°C° 0 mm 1 mps 706 mmHg 89%
    06:00 -1°C° 0 mm 1 mps 706 mmHg 89%
    07:00 -1°C° 0 mm 1 mps 706 mmHg 89%
    08:00 0°C° 0 mm 1 mps 707 mmHg 84%
    09:00 +1°C° 0 mm 1 mps 707 mmHg 80%
    10:00 +3°C° 0 mm 1 mps 707 mmHg 75%
    11:00 +4°C° 0 mm 1 mps 707 mmHg 71%
    12:00 +4°C° 0 mm 0 mps 707 mmHg 68%
    13:00 +5°C° 0 mm 0 mps 708 mmHg 65%
    14:00 +4°C° 0 mm 0 mps 707 mmHg 68%
    15:00 +4°C° 0 mm 0 mps 707 mmHg 72%
    16:00 +3°C° 0 mm 0 mps 707 mmHg 76%
    17:00 +3°C° 0 mm 1 mps 707 mmHg 80%
    18:00 +2°C° 0 mm 1 mps 707 mmHg 84%
    19:00 +1°C° 0 mm 1 mps 707 mmHg 87%
    20:00 +1°C° 0 mm 1 mps 707 mmHg 89%
    21:00 +1°C° 0 mm 1 mps 708 mmHg 90%
    22:00 -1°C° 0 mm 2 mps 708 mmHg 91%
    23:00 -1°C° 0 mm 2 mps 708 mmHg 91%

    Mañana, 21 Enero, Lunes

    Tiempo Temperatura Precipitaciones Viento Presión Humedad
    00:00 -1°C° 0 mm 2 mps 708 mmHg 91%
    01:00 -1°C° 0 mm 2 mps 708 mmHg 90%
    02:00 -1°C° 0 mm 2 mps 708 mmHg 89%
    03:00 -2°C° 0 mm 2 mps 708 mmHg 88%
    04:00 -2°C° 0 mm 3 mps 708 mmHg 87%
    05:00 -2°C° 0 mm 3 mps 708 mmHg 87%
    06:00 -2°C° 0 mm 3 mps 708 mmHg 86%
    07:00 -2°C° 0 mm 3 mps 709 mmHg 85%
    08:00 -1°C° 0.1 mm 3 mps 709 mmHg 83%
    09:00 -1°C° 0.1 mm 3 mps 709 mmHg 81%
    10:00 -1°C° 0.1 mm 3 mps 710 mmHg 79%
    11:00 0°C° 0.1 mm 3 mps 709 mmHg 79%
    12:00 0°C° 0.1 mm 3 mps 709 mmHg 78%
    13:00 0°C° 0.1 mm 3 mps 709 mmHg 78%
    14:00 0°C° 0.2 mm 3 mps 709 mmHg 79%
    15:00 -1°C° 0.2 mm 3 mps 709 mmHg 80%
    16:00 -1°C° 0.2 mm 3 mps 708 mmHg 82%
    17:00 -2°C° 0.3 mm 3 mps 708 mmHg 83%
    18:00 -2°C° 0.3 mm 3 mps 708 mmHg 85%
    19:00 -2°C° 0.3 mm 3 mps 708 mmHg 87%
    20:00 -2°C° 0.5 mm 3 mps 708 mmHg 87%
    21:00 -4°C° 0.5 mm 3 mps 708 mmHg 88%
    22:00 -4°C° 0.5 mm 3 mps 708 mmHg 88%
    23:00 -4°C° 0.7 mm 3 mps 708 mmHg 89%

    Pasado mañana, 22 Enero, Martes

    Tiempo Temperatura Precipitaciones Viento Presión Humedad
    00:00 -4°C° 0.7 mm 3 mps 708 mmHg 89%
    01:00 -4°C° 0.7 mm 3 mps 708 mmHg 90%
    02:00 -4°C° 0.4 mm 3 mps 707 mmHg 89%
    03:00 -4°C° 0.4 mm 3 mps 707 mmHg 89%
    04:00 -5°C° 0.4 mm 3 mps 706 mmHg 89%
    05:00 -5°C° 0.2 mm 3 mps 706 mmHg 88%
    06:00 -5°C° 0.2 mm 3 mps 706 mmHg 88%
    07:00 -5°C° 0.2 mm 3 mps 705 mmHg 87%
    08:00 -4°C° 0.1 mm 3 mps 705 mmHg 86%
    09:00 -4°C° 0.1 mm 3 mps 705 mmHg 86%
    10:00 -4°C° 0.1 mm 3 mps 705 mmHg 85%
    11:00 -2°C° 0 mm 3 mps 704 mmHg 84%
    12:00 -1°C° 0 mm 3 mps 703 mmHg 83%
    13:00 0°C° 0 mm 3 mps 703 mmHg 83%
    14:00 -1°C° 0 mm 3 mps 702 mmHg 84%
    15:00 -1°C° 0 mm 3 mps 702 mmHg 85%
    16:00 -1°C° 0 mm 3 mps 701 mmHg 86%
    17:00 -1°C° 0.1 mm 3 mps 700 mmHg 87%
    18:00 -2°C° 0.1 mm 2 mps 700 mmHg 88%
    19:00 -2°C° 0.1 mm 2 mps 699 mmHg 89%
    20:00 -2°C° 0.3 mm 2 mps 699 mmHg 90%
    21:00 -2°C° 0.3 mm 2 mps 699 mmHg 90%
    22:00 -3°C° 0.3 mm 2 mps 698 mmHg 90%
    23:00 -3°C° 0.6 mm 2 mps 698 mmHg 91%

    23 Enero, Miércoles

    Tiempo Temperatura Precipitaciones Viento Presión Humedad
    00:00 -3°C° 0.6 mm 2 mps 697 mmHg 91%
    01:00 -3°C° 0.6 mm 2 mps 697 mmHg 91%
    02:00 -3°C° 0.1 mm 2 mps 696 mmHg 91%
    03:00 -4°C° 0.1 mm 2 mps 696 mmHg 91%
    04:00 -4°C° 0.1 mm 2 mps 695 mmHg 92%
    05:00 -4°C° 0 mm 2 mps 695 mmHg 91%
    06:00 -4°C° 0 mm 2 mps 695 mmHg 91%
    07:00 -4°C° 0 mm 2 mps 695 mmHg 91%
    08:00 -3°C° 0 mm 2 mps 695 mmHg 90%
    09:00 -2°C° 0 mm 2 mps 695 mmHg 88%
    10:00 -1°C° 0 mm 2 mps 696 mmHg 86%
    11:00 +1°C° 0 mm 2 mps 696 mmHg 86%
    12:00 +2°C° 0 mm 2 mps 696 mmHg 86%
    13:00 +2°C° 0 mm 2 mps 696 mmHg 86%
    14:00 +2°C° 0 mm 2 mps 696 mmHg 87%
    15:00 +2°C° 0 mm 2 mps 696 mmHg 88%
    16:00 +1°C° 0 mm 2 mps 696 mmHg 89%
    17:00 +1°C° 0 mm 2 mps 696 mmHg 90%
    18:00 -1°C° 0 mm 2 mps 696 mmHg 91%
    19:00 -2°C° 0 mm 2 mps 696 mmHg 92%
    20:00 -2°C° 0.1 mm 2 mps 697 mmHg 92%
    21:00 -2°C° 0.1 mm 2 mps 697 mmHg 91%
    22:00 -2°C° 0.1 mm 2 mps 697 mmHg 90%
    23:00 -2°C° 0.2 mm 2 mps 698 mmHg 90%

    24 Enero, Jueves

    Tiempo Temperatura Precipitaciones Viento Presión Humedad
    00:00 -2°C° 0.2 mm 2 mps 698 mmHg 89%
    01:00 -1°C° 0.2 mm 2 mps 698 mmHg 89%
    02:00 -2°C° 0 mm 3 mps 698 mmHg 89%
    03:00 -2°C° 0 mm 3 mps 697 mmHg 89%
    04:00 -2°C° 0 mm 3 mps 697 mmHg 90%
    05:00 -2°C° 0 mm 3 mps 697 mmHg 89%
    06:00 -2°C° 0 mm 3 mps 697 mmHg 89%
    07:00 -3°C° 0 mm 4 mps 697 mmHg 88%
    08:00 -2°C° 0 mm 4 mps 697 mmHg 87%
    09:00 -2°C° 0 mm 5 mps 697 mmHg 85%
    10:00 -1°C° 0 mm 5 mps 697 mmHg 84%
    11:00 -1°C° 0 mm 5 mps 697 mmHg 83%
    12:00 -2°C° 0 mm 6 mps 697 mmHg 83%
    13:00 -2°C° 0 mm 6 mps 696 mmHg 82%
    14:00 -2°C° 0.1 mm 6 mps 696 mmHg 82%
    15:00 -2°C° 0.1 mm 6 mps 696 mmHg 83%
    16:00 -3°C° 0.1 mm 6 mps 696 mmHg 83%
    17:00 -3°C° 0.1 mm 6 mps 696 mmHg 83%
    18:00 -3°C° 0.1 mm 6 mps 697 mmHg 84%
    19:00 -4°C° 0.1 mm 6 mps 697 mmHg 85%
    20:00 -4°C° 0.2 mm 6 mps 697 mmHg 85%
    21:00 -4°C° 0.2 mm 6 mps 697 mmHg 84%
    22:00 -4°C° 0.2 mm 6 mps 697 mmHg 84%
    23:00 -4°C° 0.2 mm 6 mps 697 mmHg 84%

    25 Enero, Viernes

    Tiempo Temperatura Precipitaciones Viento Presión Humedad
    00:00 -4°C° 0.2 mm 6 mps 698 mmHg 84%
    01:00 -5°C° 0.2 mm 6 mps 698 mmHg 84%
    02:00 -5°C° 0.1 mm 6 mps 698 mmHg 84%
    03:00 -5°C° 0.1 mm 6 mps 698 mmHg 84%
    04:00 -5°C° 0.1 mm 6 mps 698 mmHg 84%
    05:00 -5°C° 0.1 mm 6 mps 698 mmHg 84%
    06:00 -5°C° 0.1 mm 6 mps 698 mmHg 84%
    07:00 -5°C° 0.1 mm 6 mps 699 mmHg 84%
    08:00 -6°C° 0.1 mm 7 mps 699 mmHg 83%
    09:00 -4°C° 0.1 mm 7 mps 700 mmHg 82%
    10:00 -5°C° 0.1 mm 8 mps 700 mmHg 82%
    11:00 -4°C° 0.1 mm 7 mps 701 mmHg 82%
    12:00 -4°C° 0.1 mm 7 mps 701 mmHg 82%
    13:00 -4°C° 0.1 mm 7 mps 701 mmHg 81%
    14:00 -4°C° 0.1 mm 7 mps 702 mmHg 82%
    15:00 -4°C° 0.1 mm 7 mps 702 mmHg 82%
    16:00 -4°C° 0.1 mm 7 mps 702 mmHg 83%
    17:00 -6°C° 0.1 mm 7 mps 703 mmHg 83%
    18:00 -6°C° 0.1 mm 7 mps 704 mmHg 82%
    19:00 -6°C° 0.1 mm 7 mps 704 mmHg 82%
    20:00 -6°C° 0 mm 7 mps 705 mmHg 82%
    21:00 -6°C° 0 mm 7 mps 705 mmHg 82%
    22:00 -6°C° 0 mm 7 mps 706 mmHg 82%
    23:00 -6°C° 0 mm 7 mps 706 mmHg 82%
    Mostrar más